| time (UTC) | temp F | wind direction | speed knots | gust knots | rain 1hr in | rain 24hr in | rain mn in | humidity % | barometer mb |
| 20260507191537 | 59 | 200 | 2.6 | 8.7 | 0.00 | 0.23 | 0.00 | 37 | 1006.8 |
| 20260507190033 | 57 | 201 | 0.9 | 8.7 | 0.00 | 0.23 | 0.00 | 38 | 1007.0 |
| 20260507184534 | 57 | 201 | 2.6 | 8.7 | 0.00 | 0.26 | 0.00 | 38 | 1007.3 |
| 20260507183034 | 57 | 200 | 0.9 | 8.7 | 0.00 | 0.26 | 0.00 | 39 | 1007.3 |
| 20260507181531 | 58 | 200 | 0.0 | 6.1 | 0.00 | 0.26 | 0.00 | 37 | 1007.3 |
| 20260507180029 | 59 | 201 | 0.0 | 4.3 | 0.00 | 0.26 | 0.00 | 40 | 1007.5 |
| 20260507174537 | 59 | 199 | 0.9 | 13.0 | 0.00 | 0.30 | 0.00 | 41 | 1007.4 |
| 20260507173049 | 58 | 188 | 1.7 | 7.8 | 0.00 | 0.30 | 0.00 | 43 | 1007.4 |
| 20260507171528 | 59 | 188 | 0.0 | 6.1 | 0.00 | 0.30 | 0.00 | 42 | 1007.6 |
| 20260507170025 | 58 | 44 | 2.6 | 8.7 | 0.00 | 0.30 | 0.00 | 43 | 1007.8 |
| 20260507164522 | 58 | 188 | 0.9 | 7.8 | 0.00 | 0.30 | 0.00 | 46 | 1007.9 |
| 20260507163025 | 58 | 187 | 2.6 | 9.6 | 0.00 | 0.30 | 0.00 | 44 | 1007.9 |
| 20260507161519 | 57 | 187 | 0.0 | 9.6 | 0.00 | 0.30 | 0.00 | 48 | 1008.2 |
| 20260507160018 | 57 | 187 | 1.7 | 7.8 | 0.00 | 0.30 | 0.00 | 48 | 1008.1 |
| 20260507154515 | 56 | 186 | 2.6 | 7.8 | 0.00 | 0.30 | 0.00 | 53 | 1008.3 |
| 20260507153013 | 55 | 187 | 1.7 | 10.4 | 0.00 | 0.30 | 0.00 | 54 | 1008.4 |
| 20260507151509 | 54 | 170 | 4.3 | 11.3 | 0.00 | 0.30 | 0.00 | 63 | 1008.6 |
| 20260507150008 | 53 | 188 | 2.6 | 8.7 | 0.00 | 0.30 | 0.00 | 61 | 1008.7 |
| 20260507144506 | 51 | 187 | 3.5 | 9.6 | 0.00 | 0.30 | 0.00 | 70 | 1008.7 |
| 20260507143005 | 53 | 188 | 2.6 | 9.6 | 0.00 | 0.30 | 0.00 | 69 | 1008.5 |
| 20260507141501 | 52 | 187 | 0.0 | 4.3 | 0.00 | 0.30 | 0.00 | 72 | 1008.7 |
| 20260507140107 | 52 | 188 | 0.0 | 5.2 | 0.00 | 0.30 | 0.00 | 71 | 1008.5 |
| 20260507134558 | 52 | 167 | 0.9 | 5.2 | 0.00 | 0.30 | 0.00 | 76 | 1008.6 |
| 20260507133139 | 50 | 187 | 0.0 | 5.2 | 0.00 | 0.30 | 0.00 | 76 | 1008.8 |
| 20260507131551 | 50 | 187 | 0.0 | 4.3 | 0.00 | 0.30 | 0.00 | 81 | 1009.0 |
| 20260507130059 | 49 | 54 | 0.0 | 2.6 | 0.00 | 0.30 | 0.00 | 82 | 1008.9 |
| 20260507124548 | 48 | 52 | 0.0 | 3.5 | 0.00 | 0.30 | 0.00 | 84 | 1008.9 |
| 20260507123047 | 47 | 188 | 0.0 | 4.3 | 0.00 | 0.30 | 0.00 | 85 | 1008.8 |
| 20260507121541 | 46 | 60 | 0.0 | 0.9 | 0.00 | 0.30 | 0.00 | 88 | 1008.9 |
| 20260507120036 | 45 | 147 | 0.0 | 1.7 | 0.00 | 0.30 | 0.00 | 90 | 1008.9 |
| 20260507114534 | 44 | 187 | 0.0 | 0.9 | 0.00 | 0.30 | 0.00 | 92 | 1008.8 |
| 20260507113033 | 43 | 187 | 0.0 | 1.7 | 0.00 | 0.30 | 0.00 | 93 | 1008.6 |
| 20260507111523 | 43 | 187 | 0.0 | 0.0 | 0.00 | 0.30 | 0.00 | 94 | 1008.7 |
| 20260507110019 | 42 | 146 | 0.0 | 0.0 | 0.00 | 0.30 | 0.00 | 93 | 1008.4 |
| 20260507104514 | 42 | 155 | 0.0 | 0.0 | 0.00 | 0.30 | 0.00 | 93 | 1008.1 |
| 20260507103013 | 42 | 183 | 0.0 | 0.9 | 0.00 | 0.30 | 0.00 | 93 | 1008.0 |
| 20260507101511 | 43 | 186 | 0.0 | 0.9 | 0.00 | 0.30 | 0.00 | 93 | 1007.8 |
| 20260507100009 | 43 | 186 | 0.0 | 0.9 | 0.00 | 0.30 | 0.00 | 93 | 1008.3 |
| 20260507094508 | 43 | 56 | 0.0 | 0.0 | 0.00 | 0.30 | 0.00 | 93 | 1007.9 |
| 20260507093008 | 43 | 58 | 0.0 | 2.6 | 0.00 | 0.30 | 0.00 | 93 | 1008.0 |
| 20260507091506 | 43 | 187 | 0.0 | 3.5 | 0.00 | 0.30 | 0.00 | 94 | 1008.2 |
| 20260507090010 | 43 | 53 | 0.0 | 0.0 | 0.00 | 0.30 | 0.00 | 94 | 1008.3 |
| 20260507084502 | 43 | 186 | 0.0 | 2.6 | 0.00 | 0.30 | 0.00 | 94 | 1007.6 |
| 20260507083002 | 43 | 187 | 0.0 | 0.9 | 0.00 | 0.30 | 0.00 | 94 | 1007.6 |
| 20260507081559 | 43 | 188 | 0.0 | 1.7 | 0.00 | 0.30 | 0.00 | 94 | 1007.6 |
| 20260507080059 | 44 | 186 | 0.0 | 0.9 | 0.00 | 0.30 | 0.00 | 95 | 1007.6 |
| 20260507074558 | 44 | 187 | 0.0 | 1.7 | 0.00 | 0.30 | 0.00 | 95 | 1007.6 |
| 20260507073104 | 44 | 187 | 0.0 | 1.7 | 0.00 | 0.30 | 0.00 | 95 | 1007.2 |
| 20260507071554 | 44 | 187 | 0.0 | 2.6 | 0.00 | 0.30 | 0.00 | 95 | 1007.3 |
| 20260507070058 | 44 | 169 | 0.0 | 1.7 | 0.00 | 0.30 | 0.00 | 95 | 1006.9 |
| 20260507064554 | 44 | 56 | 0.0 | 1.7 | 0.00 | 0.30 | 0.00 | 96 | 1007.0 |
| 20260507063048 | 45 | 210 | 0.0 | 3.5 | 0.00 | 0.30 | 0.00 | 96 | 1006.9 |
| 20260507061547 | 45 | 207 | 0.0 | 2.6 | 0.00 | 0.30 | 0.00 | 96 | 1007.1 |
| 20260507060047 | 46 | 210 | 0.0 | 3.5 | 0.00 | 0.30 | 0.00 | 97 | 1007.1 |
| 20260507054543 | 46 | 206 | 0.0 | 3.5 | 0.00 | 0.30 | 0.00 | 97 | 1007.1 |
| 20260507053042 | 46 | 205 | 0.0 | 1.7 | 0.00 | 0.30 | 0.00 | 97 | 1007.1 |
| 20260507051540 | 46 | 205 | 0.0 | 3.5 | 0.00 | 0.30 | 0.00 | 97 | 1007.1 |
| 20260507050040 | 46 | 205 | 0.0 | 1.7 | 0.00 | 0.30 | 0.00 | 97 | 1006.9 |
| 20260507044553 | 46 | 205 | 0.0 | 0.9 | 0.00 | 0.30 | 0.00 | 97 | 1006.7 |
| 20260507043036 | 47 | 205 | 0.0 | 1.7 | 0.00 | 0.30 | 0.00 | 97 | 1007.0 |
| 20260507041533 | 47 | 205 | 0.0 | 0.9 | 0.01 | 0.30 | 0.00 | 97 | 1007.1 |
| 20260507040040 | 47 | 207 | 0.0 | 0.9 | 0.04 | 0.30 | 0.00 | 97 | 1007.0 |
| 20260507034539 | 48 | 208 | 0.0 | 1.7 | 0.06 | 0.30 | 0.30 | 97 | 1006.7 |
| 20260507033041 | 48 | 209 | 0.0 | 1.7 | 0.08 | 0.30 | 0.30 | 96 | 1006.8 |
| 20260507031537 | 48 | 211 | 0.0 | 2.6 | 0.07 | 0.28 | 0.28 | 96 | 1006.7 |
| 20260507030024 | 49 | 208 | 0.0 | 2.6 | 0.04 | 0.26 | 0.26 | 96 | 1006.8 |
| 20260507024521 | 50 | 216 | 0.0 | 3.5 | 0.04 | 0.24 | 0.24 | 96 | 1006.5 |
| 20260507023016 | 51 | 187 | 0.0 | 3.5 | 0.07 | 0.22 | 0.22 | 96 | 1006.5 |
| 20260507021513 | 53 | 186 | 0.0 | 3.5 | 0.09 | 0.22 | 0.22 | 97 | 1006.2 |
| 20260507020010 | 53 | 188 | 0.0 | 2.6 | 0.09 | 0.22 | 0.22 | 97 | 1005.8 |
| 20260507014509 | 55 | 188 | 0.0 | 0.9 | 0.07 | 0.20 | 0.20 | 97 | 1005.8 |
| 20260507013003 | 57 | 188 | 0.9 | 7.0 | 0.02 | 0.15 | 0.15 | 97 | 1005.5 |
| 20260507011504 | 57 | 132 | 0.9 | 7.0 | 0.00 | 0.13 | 0.13 | 97 | 1005.2 |
| 20260507010003 | 57 | 158 | 1.7 | 7.8 | 0.00 | 0.13 | 0.13 | 97 | 1005.2 |
| 20260507004500 | 57 | 188 | 0.9 | 7.0 | 0.00 | 0.13 | 0.13 | 97 | 1005.2 |
| 20260507003113 | 57 | 186 | 0.0 | 7.8 | 0.00 | 0.13 | 0.13 | 97 | 1005.1 |
| 20260507001605 | 57 | 142 | 0.9 | 5.2 | 0.00 | 0.13 | 0.13 | 97 | 1005.1 |
| 20260507000059 | 57 | 187 | 1.7 | 10.4 | 0.00 | 0.13 | 0.13 | 97 | 1004.8 |
| 20260506234606 | 57 | 156 | 1.7 | 7.8 | 0.00 | 0.13 | 0.13 | 97 | 1004.8 |
| 20260506233059 | 57 | 120 | 0.0 | 6.1 | 0.00 | 0.13 | 0.13 | 97 | 1004.8 |
| 20260506231556 | 57 | 150 | 2.6 | 12.2 | 0.00 | 0.13 | 0.13 | 97 | 1004.8 |
| 20260506224559 | 58 | 139 | 2.6 | 11.3 | 0.00 | 0.13 | 0.13 | 96 | 1004.7 |
| 20260506223053 | 58 | 184 | 2.6 | 11.3 | 0.00 | 0.13 | 0.13 | 96 | 1004.8 |
| 20260506221551 | 58 | 150 | 3.5 | 13.9 | 0.00 | 0.13 | 0.13 | 96 | 1004.8 |
| 20260506220053 | 58 | 113 | 4.3 | 16.5 | 0.00 | 0.13 | 0.13 | 96 | 1005.0 |
| 20260506214549 | 58 | 127 | 3.5 | 13.9 | 0.00 | 0.13 | 0.13 | 96 | 1004.9 |
| 20260506213047 | 58 | 117 | 2.6 | 14.8 | 0.00 | 0.13 | 0.13 | 96 | 1005.0 |
| 20260506211547 | 59 | 143 | 2.6 | 9.6 | 0.01 | 0.13 | 0.13 | 96 | 1005.1 |
| 20260506210045 | 59 | 117 | 1.7 | 13.9 | 0.03 | 0.13 | 0.13 | 96 | 1005.1 |
| 20260506204544 | 59 | 146 | 2.6 | 9.6 | 0.04 | 0.13 | 0.13 | 96 | 1005.2 |
| 20260506203043 | 59 | 173 | 2.6 | 12.2 | 0.05 | 0.13 | 0.13 | 96 | 1005.2 |
| 20260506201541 | 59 | 165 | 4.3 | 12.2 | 0.05 | 0.12 | 0.12 | 95 | 1005.5 |
| 20260506200041 | 59 | 120 | 3.5 | 12.2 | 0.03 | 0.10 | 0.10 | 95 | 1005.5 |
| 20260506194538 | 59 | 148 | 0.9 | 9.6 | 0.02 | 0.09 | 0.09 | 94 | 1005.8 |
| 20260506193042 | 59 | 111 | 2.6 | 5.2 | 0.02 | 0.08 | 0.08 | 94 | 1005.8 |